period_start,C,m1,H,J0,J1,J2,J3,J4,J5,JA,JB,JC,JD,JJ,JK,JN,#
2017-07-03 00:01:13,0.01,0.02,0.00,21.41,25.58,28.54,13.98,42.24,1014.66,2040.00,3566.55,3098.04,3556.37,599.85,598.03,14.01,0000 0000 0000 0000 000000
2017-07-03 00:06:14,0.00,0.02,0.00,21.42,25.60,28.55,13.95,42.27,1014.66,2040.00,3566.42,3098.03,3556.15,599.85,597.93,14.06,0000 0000 0000 0000 000000
2017-07-03 00:11:16,0.00,0.02,0.00,21.43,25.60,28.56,13.96,42.31,1014.66,2040.00,3566.12,3098.00,3556.04,599.89,597.94,14.11,0000 0000 0000 0000 000000
2017-07-03 00:16:16,0.00,0.02,0.00,21.45,25.60,28.56,13.93,42.24,1014.66,2039.99,3566.01,3098.00,3556.00,600.18,598.20,14.16,0000 0000 0000 0000 000000
2017-07-03 00:21:18,0.00,0.02,0.00,21.47,25.62,28.57,13.98,42.23,1014.66,2039.99,3566.00,3098.00,3556.00,600.02,598.10,14.21,0000 0000 0000 0000 000000
2017-07-03 00:26:19,0.00,0.02,0.00,21.48,25.62,28.58,13.93,42.15,1014.66,2039.99,3566.00,3098.00,3556.00,599.96,597.99,14.26,0000 0000 0000 0000 000000
2017-07-03 00:31:21,0.00,0.02,0.00,21.48,25.63,28.59,13.91,42.39,1014.66,2039.99,3565.99,3098.00,3555.98,600.19,598.24,14.31,0000 0000 0000 0000 000000
2017-07-03 00:36:22,0.00,0.02,0.00,21.50,25.65,28.59,13.95,42.62,1014.66,2039.99,3565.95,3097.97,3555.98,599.77,597.88,14.37,0000 0000 0000 0000 000000
2017-07-03 00:41:23,-0.00,0.02,0.00,21.52,25.65,28.61,14.01,42.44,1014.65,2039.98,3565.95,3097.97,3555.96,600.21,598.06,14.42,0000 0000 0000 0000 000000
2017-07-03 00:46:24,0.00,0.02,0.00,21.55,25.66,28.61,13.95,42.26,1014.52,2039.98,3565.84,3097.92,3555.91,599.78,597.60,14.47,0000 0000 0000 0000 000000
2017-07-03 00:51:25,0.01,0.02,0.00,21.57,25.67,28.61,13.91,42.26,1014.28,2039.98,3565.66,3097.69,3555.67,599.96,597.65,14.52,0000 0000 0000 0000 000000
2017-07-03 00:56:27,0.03,0.03,0.00,21.59,25.69,28.63,13.97,42.33,1014.28,2039.98,3565.11,3097.16,3555.08,600.40,597.87,14.57,0000 0000 0000 0000 000000
2017-07-03 01:01:28,0.00,0.03,0.00,21.60,25.70,28.63,13.97,42.36,1014.22,2039.97,3565.06,3097.07,3555.04,599.94,597.46,14.62,0000 0000 0000 0000 000000
2017-07-03 01:06:29,0.00,0.03,0.00,21.63,25.71,28.63,13.86,42.43,1014.23,2039.94,3565.01,3097.01,3555.00,599.70,597.09,14.67,0000 0000 0000 0000 000000
2017-07-03 01:11:31,-0.02,0.03,0.00,21.64,25.72,28.65,13.93,42.29,1014.23,2039.83,3565.00,3097.00,3555.00,599.92,597.37,14.72,0000 0000 0000 0000 000000
2017-07-03 01:16:32,-0.01,0.02,0.00,21.66,25.74,28.65,13.95,42.38,1014.22,2039.66,3564.99,3097.00,3554.99,599.98,597.42,14.77,0000 0000 0000 0000 000000
2017-07-03 01:21:34,0.01,0.02,0.00,21.68,25.75,28.67,13.92,42.34,1014.35,2039.53,3564.98,3096.99,3554.98,599.84,597.19,14.82,0000 0000 0000 0000 000000
2017-07-03 01:26:35,-0.02,0.02,0.00,21.69,25.77,28.67,13.91,42.38,1014.62,2039.30,3564.88,3096.99,3554.89,599.69,597.23,14.87,0000 0000 0000 0000 000000
2017-07-03 01:31:36,0.02,0.02,0.00,21.72,25.78,28.69,13.94,42.27,1014.66,2039.24,3564.36,3096.97,3554.63,600.33,597.83,14.92,0000 0000 0000 0000 000000
2017-07-03 01:36:37,0.01,0.02,0.00,21.73,25.80,28.71,13.81,42.11,1014.69,2039.27,3564.16,3096.95,3554.33,599.26,596.87,14.97,0000 0000 0000 0000 000000
2017-07-03 01:41:38,-0.00,0.02,0.00,21.77,25.81,28.72,13.88,42.27,1014.73,2039.23,3564.01,3096.65,3554.04,599.76,597.11,15.02,0000 0000 0000 0000 000000
2017-07-03 01:46:40,-0.00,0.02,0.00,21.78,25.82,28.74,13.97,42.34,1014.69,2039.06,3564.00,3096.24,3554.00,600.08,597.40,15.07,0000 0000 0000 0000 000000
2017-07-03 01:51:41,0.00,0.02,0.00,21.80,25.84,28.73,13.93,42.27,1014.69,2039.03,3563.98,3096.06,3554.00,600.08,597.45,15.12,0000 0000 0000 0000 000000
2017-07-03 01:56:42,-0.00,0.02,0.00,21.83,25.86,28.72,13.86,42.11,1014.67,2039.02,3563.97,3096.01,3553.98,599.84,597.13,15.17,0000 0000 0000 0000 000000
2017-07-03 02:01:43,0.01,0.02,0.00,21.84,25.87,28.76,13.95,42.10,1014.67,2039.01,3563.68,3096.00,3553.92,600.47,597.66,15.22,0000 0000 0000 0000 000000
2017-07-03 02:06:44,0.01,0.03,0.00,21.87,25.90,28.75,13.97,42.06,1014.66,2039.02,3563.03,3095.99,3553.43,599.94,597.11,15.27,0000 0000 0000 0000 000000
2017-07-03 02:11:46,0.01,0.03,0.00,21.89,25.91,28.77,13.90,42.02,1014.66,2039.06,3562.99,3095.96,3553.13,599.98,597.13,15.32,0000 0000 0000 0000 000000
2017-07-03 02:16:47,0.01,0.03,0.00,21.92,25.93,28.78,13.93,42.00,1014.71,2039.06,3562.92,3095.62,3553.03,599.93,597.02,15.37,0000 0000 0000 0000 000000
2017-07-03 02:21:48,0.01,0.03,0.00,21.93,25.95,28.78,13.97,42.19,1014.72,2039.02,3562.62,3095.17,3553.00,600.06,597.01,15.42,0000 0000 0000 0000 000000
2017-07-03 02:26:50,0.00,0.03,0.00,21.96,25.97,28.79,13.92,41.94,1014.84,2039.01,3562.17,3095.02,3552.98,600.15,597.26,15.47,0000 0000 0000 0000 000000
2017-07-03 02:31:51,0.00,0.03,0.00,21.99,25.99,28.75,13.91,41.99,1014.90,2039.00,3562.02,3095.00,3552.89,600.17,597.18,15.52,0000 0000 0000 0000 000000
2017-07-03 02:36:52,0.00,0.03,0.00,22.02,26.01,28.76,13.93,41.92,1014.86,2039.00,3562.03,3095.00,3552.52,600.03,597.12,15.57,0000 0000 0000 0000 000000
2017-07-03 02:41:54,0.00,0.03,0.00,22.04,26.02,28.76,13.89,41.92,1014.81,2039.00,3562.00,3094.98,3552.08,599.99,596.76,15.62,0000 0000 0000 0000 000000
2017-07-03 02:46:55,0.00,0.03,0.00,22.07,26.05,28.76,13.81,41.81,1014.76,2038.99,3561.99,3094.95,3552.00,599.85,596.69,15.67,0000 0000 0000 0000 000000
2017-07-03 02:51:56,0.02,0.03,0.00,22.10,26.07,28.79,13.82,41.88,1014.86,2038.98,3561.68,3094.38,3552.00,599.68,596.65,15.72,0000 0000 0000 0000 000000
2017-07-03 02:56:57,0.01,0.03,0.00,22.13,26.09,28.80,13.85,41.77,1015.12,2038.98,3561.04,3094.02,3551.98,600.00,596.91,15.77,0000 0000 0000 0000 000000
2017-07-03 03:01:58,-0.00,0.03,0.00,22.16,26.11,28.80,13.86,41.79,1015.04,2038.95,3561.05,3094.01,3551.87,599.83,596.56,15.82,0000 0000 0000 0000 000000
2017-07-03 03:07:00,-0.02,0.03,0.00,22.19,26.14,28.83,13.82,41.87,1015.04,2038.66,3561.00,3094.00,3551.28,599.76,596.51,15.87,0000 0000 0000 0000 000000
2017-07-03 03:12:01,-0.03,0.03,0.00,22.22,26.16,28.86,13.85,41.83,1014.94,2038.15,3561.00,3093.99,3551.03,600.11,596.62,15.92,0000 0000 0000 0000 000000
2017-07-03 03:17:02,-0.01,0.03,0.00,22.24,26.19,28.87,13.81,42.01,1014.70,2038.02,3560.98,3093.95,3551.00,600.22,596.51,15.97,0000 0000 0000 0000 000000
2017-07-03 03:22:03,0.02,0.03,0.00,22.28,26.21,28.88,13.83,41.92,1014.68,2038.01,3560.81,3093.57,3550.86,600.18,596.39,16.02,0000 0000 0000 0000 000000
2017-07-03 03:27:05,0.01,0.03,0.00,22.32,26.24,28.89,13.92,41.92,1014.70,2038.00,3560.50,3093.17,3550.46,600.19,596.52,16.07,0000 0000 0000 0000 000000
2017-07-03 03:32:06,0.01,0.03,0.00,22.34,26.26,28.91,13.88,41.86,1014.81,2038.00,3560.19,3093.06,3550.13,599.77,596.09,16.12,0000 0000 0000 0000 000000
2017-07-03 03:37:07,0.00,0.03,0.00,22.36,26.29,28.91,13.80,41.70,1014.97,2038.00,3560.00,3093.00,3549.99,599.92,596.28,16.17,0000 0000 0000 0000 000000
2017-07-03 03:42:09,0.00,0.03,0.00,22.39,26.32,28.94,13.85,41.76,1014.92,2037.98,3559.99,3092.98,3549.96,600.12,596.38,16.22,0000 0000 0000 0000 000000
2017-07-03 03:47:10,-0.01,0.03,0.00,22.42,26.35,28.98,13.78,41.70,1014.92,2037.79,3559.94,3092.85,3549.59,599.79,596.04,16.27,0000 0000 0000 0000 000000
2017-07-03 03:52:11,-0.03,0.03,0.00,22.46,26.38,29.02,13.88,41.67,1014.91,2037.31,3559.77,3092.45,3549.07,600.12,596.23,16.32,0000 0000 0000 0000 000000
2017-07-03 03:57:12,0.00,0.03,0.00,22.49,26.41,29.02,13.95,41.87,1014.91,2037.05,3559.15,3092.04,3549.00,600.05,596.22,16.37,0000 0000 0000 0000 000000
2017-07-03 04:02:13,0.01,0.03,0.00,22.51,26.43,29.08,13.90,41.96,1014.92,2037.11,3558.99,3092.00,3549.00,599.98,595.83,16.42,0000 0000 0000 0000 000000
2017-07-03 04:07:14,0.00,0.03,0.00,22.52,26.46,29.13,13.83,41.71,1015.06,2037.03,3558.83,3091.98,3548.78,600.03,596.16,16.47,0000 0000 0000 0000 000000
2017-07-03 04:12:15,0.01,0.03,0.00,22.52,26.48,29.19,13.90,41.61,1015.10,2037.00,3558.40,3091.87,3548.08,600.03,596.10,16.52,0000 0000 0000 0000 000000
2017-07-03 04:17:16,0.02,0.03,0.00,22.52,26.51,29.27,13.86,41.86,1015.02,2037.00,3558.05,3091.33,3548.01,599.82,595.84,16.57,0000 0000 0000 0000 000000
2017-07-03 04:22:18,0.00,0.03,0.00,22.54,26.53,29.32,13.86,41.64,1014.99,2036.99,3558.00,3091.06,3548.00,599.83,595.88,16.62,0000 0000 0000 0000 000000
2017-07-03 04:27:19,-0.01,0.03,0.00,22.55,26.56,29.34,13.89,42.08,1014.90,2036.91,3558.00,3091.00,3547.88,599.82,595.73,16.67,0000 0000 0000 0000 000000
2017-07-03 04:32:20,-0.04,0.03,0.00,22.56,26.57,29.38,13.88,41.94,1014.98,2036.51,3557.91,3091.00,3547.23,600.26,596.17,16.72,0000 0000 0000 0000 000000
2017-07-03 04:37:21,0.00,0.03,0.00,22.58,26.59,29.39,13.92,41.77,1014.80,2036.09,3557.47,3090.94,3547.01,600.21,596.14,16.77,0000 0000 0000 0000 000000
2017-07-03 04:42:23,-0.00,0.03,0.00,22.59,26.62,29.40,13.86,41.63,1014.71,2036.04,3557.15,3090.90,3547.00,599.77,595.52,16.82,0000 0000 0000 0000 000000
2017-07-03 04:47:24,0.01,0.03,0.00,22.59,26.64,29.48,13.86,41.69,1014.72,2036.01,3557.04,3090.48,3546.96,600.01,595.80,16.87,0000 0000 0000 0000 000000
2017-07-03 04:52:25,0.01,0.03,0.00,22.60,26.66,29.55,13.90,41.80,1014.85,2036.00,3557.02,3090.11,3546.86,600.05,595.83,16.92,0000 0000 0000 0000 000000
2017-07-03 04:57:26,0.00,0.03,0.00,22.59,26.67,29.61,14.01,41.83,1014.77,2036.00,3557.00,3090.02,3546.36,600.48,596.21,16.97,0000 0000 0000 0000 000000
2017-07-03 05:02:28,0.00,0.03,0.00,22.57,26.70,29.65,13.91,41.75,1014.78,2035.98,3557.00,3090.00,3546.05,600.12,595.94,17.02,0000 0000 0000 0000 000000
2017-07-03 05:07:29,-0.00,0.03,0.00,22.57,26.71,29.69,13.89,41.91,1014.81,2035.94,3556.92,3089.99,3546.00,600.47,596.27,17.07,0000 0000 0000 0000 000000
2017-07-03 05:12:30,-0.04,0.03,0.00,22.55,26.72,29.70,13.92,42.18,1014.86,2035.48,3556.46,3089.97,3545.99,599.95,595.95,17.12,0000 0000 0000 0000 000000
2017-07-03 05:17:32,-0.01,0.03,0.00,22.53,26.74,29.72,13.87,42.25,1014.84,2035.26,3556.20,3089.94,3545.95,600.04,595.87,17.17,0000 0000 0000 0000 000000
2017-07-03 05:22:33,0.00,0.03,0.00,22.52,26.75,29.71,13.91,42.26,1014.71,2035.11,3556.08,3089.88,3545.85,600.04,596.04,17.22,0000 0000 0000 0000 000000
2017-07-03 05:27:34,0.02,0.03,0.00,22.50,26.76,29.72,13.87,42.07,1014.67,2035.05,3556.01,3089.39,3545.29,599.99,595.96,17.27,0000 0000 0000 0000 000000
2017-07-03 05:32:35,-0.00,0.03,0.00,22.51,26.77,29.71,13.90,41.99,1014.66,2035.02,3556.00,3089.18,3545.07,600.06,595.89,17.32,0000 0000 0000 0000 000000
2017-07-03 05:37:36,0.00,0.03,0.00,22.52,26.77,29.71,13.86,42.08,1014.65,2035.01,3556.00,3089.06,3545.01,600.15,596.06,17.37,0000 0000 0000 0000 000000
2017-07-03 05:42:37,0.00,0.03,0.00,22.53,26.79,29.71,13.86,42.21,1014.66,2035.00,3555.98,3089.01,3545.00,599.69,595.44,17.43,0000 0000 0000 0000 000000
2017-07-03 05:47:38,0.18,0.03,0.00,22.53,26.80,29.70,13.78,42.04,1014.66,2035.00,3552.63,3086.64,3542.41,599.57,595.47,17.48,0000 0000 0000 0000 000000
2017-07-03 05:52:40,6.11,0.21,0.00,22.54,26.80,29.70,13.86,42.21,1014.66,2034.96,3452.20,3015.12,3463.92,599.92,595.74,17.53,0000 0000 0000 0000 000000
2017-07-03 05:57:41,0.48,0.37,0.13,22.57,26.82,29.72,13.90,42.10,1014.66,2034.83,3407.31,2982.96,3428.16,600.26,596.05,17.58,0000 0000 0000 0000 000000
2017-07-03 06:02:42,0.82,0.39,1.00,22.58,26.82,29.73,13.95,42.60,1014.66,2034.37,3396.16,2974.36,3418.95,600.29,596.02,17.63,0000 0000 0000 0000 000000
2017-07-03 06:07:43,0.33,0.43,1.00,22.62,26.82,29.72,13.89,42.39,1014.65,2034.04,3382.13,2964.09,3407.38,599.93,595.51,17.68,0000 0000 0000 0000 000000
2017-07-03 06:12:45,0.68,0.45,1.00,22.64,26.85,29.68,13.90,42.58,1014.61,2034.02,3370.03,2956.08,3398.82,600.11,595.68,17.73,0000 0000 0000 0000 000000
2017-07-03 06:17:46,1.68,0.52,1.00,22.65,26.85,29.68,13.86,42.43,1014.55,2034.00,3338.16,2934.15,3374.71,599.66,595.18,17.78,0000 0000 0000 0000 000000
2017-07-03 06:22:47,0.11,0.55,1.00,22.68,26.87,29.73,13.88,42.35,1014.58,2034.00,3329.14,2927.97,3367.94,599.82,595.35,17.83,0000 0000 0000 0000 000000
2017-07-03 06:27:49,0.04,0.56,1.00,22.71,26.87,29.73,13.87,42.44,1014.49,2034.00,3328.09,2927.25,3367.05,599.91,595.26,17.88,0000 0000 0000 0000 000000
2017-07-03 06:32:50,0.00,0.56,1.00,22.72,26.90,29.76,13.89,42.33,1014.47,2034.00,3328.03,2927.13,3367.00,600.10,595.47,17.93,0000 0000 0000 0000 000000
2017-07-03 06:37:51,0.00,0.56,1.00,22.75,26.90,29.77,13.85,42.25,1014.43,2034.00,3327.95,2927.01,3366.93,599.99,595.33,17.98,0000 0000 0000 0000 000000
2017-07-03 06:42:52,0.00,0.56,1.00,22.79,26.92,29.76,13.84,42.13,1014.25,2033.99,3327.83,2927.00,3366.62,599.99,595.14,18.03,0000 0000 0000 0000 000000
2017-07-03 06:47:53,0.00,0.56,1.00,22.83,26.93,29.75,13.89,42.26,1014.49,2033.99,3327.86,2927.00,3366.28,600.46,595.57,18.08,0000 0000 0000 0000 000000
2017-07-03 06:52:55,0.01,0.56,1.00,22.87,26.95,29.72,13.88,42.17,1014.45,2033.97,3327.53,2926.99,3366.04,599.49,594.52,18.13,0000 0000 0000 0000 000000
2017-07-03 06:57:56,0.00,0.56,0.80,22.93,26.97,29.72,13.83,42.18,1014.43,2033.94,3327.10,2926.95,3366.00,599.55,594.51,18.18,0000 0000 0000 0000 000000
2017-07-03 07:02:57,-0.00,0.56,0.00,22.98,26.99,29.71,13.83,42.13,1014.63,2033.85,3327.00,2926.71,3366.00,600.37,595.26,18.23,0000 0000 0000 0000 000000
2017-07-03 07:07:59,-0.04,0.56,0.00,23.04,27.01,29.67,13.77,42.14,1014.60,2033.33,3327.00,2926.13,3365.95,599.72,594.41,18.28,0000 0000 0000 0000 000000
2017-07-03 07:13:00,-0.01,0.56,0.00,23.09,27.04,29.65,13.83,42.17,1014.53,2033.13,3327.00,2926.04,3365.66,600.05,594.64,18.33,0000 0000 0000 0000 000000
2017-07-03 07:18:01,0.01,0.56,0.00,23.13,27.07,29.64,13.80,42.10,1014.45,2033.03,3326.86,2926.00,3365.05,599.73,594.27,18.38,0000 0000 0000 0000 000000
2017-07-03 07:23:03,0.01,0.56,0.00,23.16,27.10,29.67,13.77,42.22,1014.22,2033.00,3326.24,2925.87,3364.99,599.92,594.05,18.43,0000 0000 0000 0000 000000
2017-07-03 07:28:04,0.02,0.56,0.00,23.20,27.13,29.68,13.81,42.06,1014.21,2033.00,3326.00,2925.29,3364.73,599.79,593.97,18.48,0000 0000 0000 0000 000000
2017-07-03 07:33:05,0.01,0.56,0.00,23.23,27.16,29.75,13.79,42.21,1014.18,2033.00,3325.90,2925.00,3364.06,600.24,594.38,18.53,0000 0000 0000 0000 000000
2017-07-03 07:38:06,0.01,0.56,0.00,23.24,27.19,29.84,13.75,42.35,1014.18,2032.98,3325.13,2924.97,3363.99,599.45,593.62,18.58,0000 0000 0000 0000 000000
2017-07-03 07:43:08,0.03,0.56,0.00,23.24,27.21,29.94,13.78,42.26,1014.18,2032.97,3324.98,2924.35,3363.41,599.61,593.81,18.63,0000 0000 0000 0000 000000
2017-07-03 07:48:09,0.01,0.56,0.00,23.25,27.24,30.00,13.82,42.07,1014.18,2032.88,3324.30,2924.03,3363.02,599.97,594.01,18.68,0000 0000 0000 0000 000000
2017-07-03 07:53:10,-0.01,0.56,0.00,23.27,27.26,30.06,13.85,42.10,1014.18,2032.78,3324.00,2923.98,3362.98,599.83,593.91,18.73,0000 0000 0000 0000 000000
2017-07-03 07:58:11,0.01,0.56,0.00,23.28,27.28,30.11,13.75,42.08,1014.18,2032.72,3323.97,2923.95,3362.82,599.94,594.04,18.78,0000 0000 0000 0000 000000
2017-07-03 08:03:13,0.00,0.56,0.00,23.34,27.30,30.10,13.84,42.07,1014.18,2032.47,3323.58,2923.54,3362.22,600.10,594.02,18.83,0000 0000 0000 0000 000000
2017-07-03 08:08:14,-0.00,0.56,0.00,23.39,27.32,30.05,13.88,41.99,1014.18,2032.17,3323.02,2923.03,3362.00,599.91,593.69,18.88,0000 0000 0000 0000 000000
2017-07-03 08:13:15,-0.01,0.56,0.00,23.44,27.35,29.99,13.80,42.09,1014.19,2032.02,3322.99,2923.00,3361.94,599.79,593.58,18.93,0000 0000 0000 0000 000000
2017-07-03 08:18:17,0.01,0.56,0.00,23.49,27.37,29.98,13.88,42.14,1014.20,2032.00,3322.95,2923.00,3361.62,600.78,594.57,18.98,0000 0000 0000 0000 000000
2017-07-03 08:23:18,0.04,0.56,0.00,23.54,27.39,29.97,13.80,42.39,1014.19,2032.00,3322.21,2922.53,3361.04,599.76,593.15,19.03,0000 0000 0000 0000 000000
2017-07-03 08:28:20,0.02,0.57,0.00,23.58,27.42,29.97,13.75,42.07,1014.20,2032.00,3321.35,2922.01,3360.73,599.93,593.41,19.08,0000 0000 0000 0000 000000
2017-07-03 08:33:21,0.01,0.57,0.00,23.63,27.45,29.99,13.79,42.00,1014.20,2032.00,3321.01,2921.93,3360.20,599.85,593.29,19.13,0000 0000 0000 0000 000000
2017-07-03 08:38:22,0.02,0.57,0.00,23.67,27.47,30.02,13.78,42.00,1014.22,2031.98,3320.81,2921.31,3360.00,600.07,593.30,19.18,0000 0000 0000 0000 000000
2017-07-03 08:43:24,0.01,0.57,0.00,23.71,27.50,30.06,13.75,41.83,1014.20,2031.86,3320.13,2921.02,3359.76,599.76,592.92,19.23,0000 0000 0000 0000 000000
2017-07-03 08:48:25,-0.02,0.57,0.00,23.75,27.53,30.08,13.79,41.98,1014.19,2031.56,3320.00,2921.00,3359.09,599.76,592.89,19.28,0000 0000 0000 0000 000000
2017-07-03 08:53:26,-0.02,0.57,0.00,23.80,27.56,30.12,13.80,41.83,1014.18,2031.27,3319.90,2920.97,3359.00,600.24,593.24,19.33,0000 0000 0000 0000 000000
2017-07-03 08:58:28,0.02,0.57,0.00,23.86,27.60,30.15,13.80,41.81,1014.18,2031.05,3319.15,2920.33,3358.85,600.20,593.01,19.38,0000 0000 0000 0000 000000
2017-07-03 09:03:29,0.01,0.57,0.00,23.91,27.63,30.18,13.84,42.01,1014.18,2031.00,3319.00,2920.01,3358.21,600.56,593.30,19.43,0000 0000 0000 0000 000000
2017-07-03 09:08:31,0.00,0.57,0.00,23.97,27.67,30.21,13.75,42.08,1014.18,2031.00,3318.92,2920.00,3358.01,599.64,592.30,19.48,0000 0000 0000 0000 000000
2017-07-03 09:13:32,0.01,0.57,0.00,24.02,27.71,30.26,13.74,41.87,1014.18,2030.98,3318.26,2919.90,3357.94,599.99,592.46,19.53,0000 0000 0000 0000 000000
2017-07-03 09:18:33,0.02,0.57,0.00,24.08,27.75,30.29,13.77,41.79,1014.18,2030.88,3318.01,2919.37,3357.40,599.63,592.07,19.58,0000 0000 0000 0000 000000
2017-07-03 09:23:34,-0.05,0.57,0.00,24.14,27.79,30.33,13.80,41.79,1014.18,2030.26,3317.88,2919.00,3357.00,600.13,592.45,19.63,0000 0000 0000 0000 000000
2017-07-03 09:28:36,-0.00,0.57,0.00,24.20,27.83,30.37,13.73,41.69,1014.18,2030.04,3317.40,2918.98,3356.87,600.30,592.54,19.68,0000 0000 0000 0000 000000
2017-07-03 09:33:37,0.03,0.57,0.00,24.25,27.87,30.41,13.72,41.73,1014.18,2030.00,3317.02,2918.46,3356.11,599.76,591.92,19.73,0000 0000 0000 0000 000000
2017-07-03 09:38:38,0.01,0.57,0.00,24.30,27.91,30.44,13.72,41.76,1014.18,2029.99,3316.90,2918.02,3356.00,600.14,592.12,19.78,0000 0000 0000 0000 000000
2017-07-03 09:43:40,0.02,0.57,0.00,24.34,27.96,30.50,13.69,41.75,1014.19,2029.96,3316.15,2917.98,3355.59,599.80,591.72,19.83,0000 0000 0000 0000 000000
2017-07-03 09:48:41,-0.02,0.57,0.00,24.36,28.00,30.54,13.80,41.73,1014.21,2029.65,3316.00,2917.49,3355.04,600.16,592.02,19.88,0000 0000 0000 0000 000000
2017-07-03 09:53:42,-0.02,0.57,0.00,24.40,28.04,30.59,13.68,41.74,1014.22,2029.08,3315.63,2917.04,3354.99,599.64,591.48,19.93,0000 0000 0000 0000 000000
2017-07-03 09:58:43,0.01,0.57,0.00,24.43,28.08,30.64,13.71,41.67,1014.19,2029.02,3315.05,2917.00,3354.61,600.10,591.82,19.98,0000 0000 0000 0000 000000
2017-07-03 10:03:44,0.01,0.57,0.00,24.47,28.12,30.68,13.71,41.72,1014.18,2029.00,3314.98,2916.90,3354.02,599.81,591.51,20.03,0000 0000 0000 0000 000000
2017-07-03 10:08:46,0.03,0.57,0.00,24.52,28.16,30.72,13.81,41.92,1014.18,2029.00,3314.37,2916.28,3353.91,600.50,592.03,20.08,0000 0000 0000 0000 000000
2017-07-03 10:13:47,0.01,0.57,0.00,24.60,28.20,30.75,13.69,42.08,1014.18,2028.90,3313.51,2915.95,3353.09,599.61,591.07,20.13,0000 0000 0000 0000 000000
2017-07-03 10:18:48,-0.02,0.57,0.00,24.68,28.24,30.78,13.74,42.13,1014.18,2028.33,3312.93,2915.21,3352.71,599.67,590.92,20.18,0000 0000 0000 0000 000000
2017-07-03 10:23:49,0.01,0.57,0.00,24.77,28.29,30.82,13.69,41.97,1014.20,2028.05,3312.14,2915.00,3352.04,599.60,590.69,20.23,0000 0000 0000 0000 000000
2017-07-03 10:28:51,0.01,0.57,0.00,24.82,28.33,30.85,13.71,41.80,1014.18,2028.00,3311.92,2914.79,3351.93,599.84,590.86,20.28,0000 0000 0000 0000 000000
2017-07-03 10:33:52,0.04,0.57,0.00,24.89,28.38,30.89,13.74,41.71,1014.20,2027.99,3311.14,2914.07,3351.15,599.80,590.81,20.33,0000 0000 0000 0000 000000
2017-07-03 10:38:54,-0.00,0.57,0.00,24.98,28.43,30.94,13.78,41.94,1014.19,2027.87,3310.95,2914.00,3350.91,600.09,590.70,20.38,0000 0000 0000 0000 000000
2017-07-03 10:43:55,-0.02,0.57,0.00,25.08,28.48,31.01,13.79,41.79,1014.21,2027.25,3310.31,2913.48,3350.17,600.48,590.86,20.43,0000 0000 0000 0000 000000
2017-07-03 10:48:56,0.00,0.57,0.00,25.18,28.54,31.10,13.61,41.62,1014.19,2027.07,3310.01,2913.05,3350.01,599.62,589.77,20.48,0000 0000 0000 0000 000000
2017-07-03 10:53:57,0.01,0.57,0.00,25.29,28.60,31.17,13.68,41.59,1014.19,2027.00,3309.90,2912.99,3349.75,599.92,589.96,20.53,0000 0000 0000 0000 000000
2017-07-03 10:58:58,0.03,0.57,0.00,25.39,28.65,31.27,13.70,41.56,1014.20,2026.99,3309.18,2912.56,3349.04,600.20,590.05,20.58,0000 0000 0000 0000 000000
2017-07-03 11:04:00,0.00,0.58,0.00,25.42,28.71,31.35,13.64,41.45,1014.18,2026.84,3308.98,2912.03,3348.83,599.94,589.72,20.63,0000 0000 0000 0000 000000
2017-07-03 11:09:01,-0.04,0.57,0.00,25.41,28.77,31.41,13.65,41.43,1014.19,2026.20,3308.24,2911.96,3348.07,600.08,589.84,20.68,0000 0000 0000 0000 000000
2017-07-03 11:14:02,0.01,0.57,0.00,25.37,28.83,31.49,13.73,41.52,1014.18,2026.01,3308.00,2911.33,3347.95,599.98,589.79,20.74,0000 0000 0000 0000 000000
2017-07-03 11:19:03,0.02,0.58,0.00,25.34,28.88,31.55,13.72,41.92,1014.18,2026.00,3307.73,2911.00,3347.38,600.62,590.40,20.79,0000 0000 0000 0000 000000
2017-07-03 11:24:04,0.01,0.58,0.00,25.32,28.93,31.59,13.65,41.82,1014.18,2025.87,3307.02,2910.74,3346.99,599.89,589.88,20.84,0000 0000 0000 0000 000000
2017-07-03 11:29:05,-0.04,0.57,0.00,25.29,28.97,31.65,13.73,41.72,1014.17,2025.16,3306.96,2910.05,3346.34,600.26,590.29,20.89,0000 0000 0000 0000 000000
2017-07-03 11:34:06,0.01,0.57,0.00,25.30,29.01,31.68,13.74,41.52,1014.18,2025.01,3306.32,2909.99,3346.02,600.00,590.08,20.94,0000 0000 0000 0000 000000
2017-07-03 11:39:08,0.00,0.57,0.00,25.32,29.05,31.71,13.70,41.48,1014.18,2025.00,3306.00,2909.95,3345.98,599.65,589.78,20.99,0000 0000 0000 0000 000000
2017-07-03 11:44:09,0.03,0.58,0.00,25.31,29.09,31.75,13.72,41.58,1013.96,2024.99,3305.86,2909.43,3345.45,599.96,589.81,21.04,0000 0000 0000 0000 000000
2017-07-03 11:49:10,0.01,0.58,0.00,25.30,29.12,31.79,13.73,41.48,1013.79,2024.91,3305.18,2909.01,3345.01,599.97,589.82,21.09,0000 0000 0000 0000 000000
2017-07-03 11:54:12,-0.03,0.58,0.00,25.33,29.15,31.81,13.70,41.55,1013.89,2024.57,3305.00,2909.00,3344.98,600.02,589.93,21.14,0000 0000 0000 0000 000000
2017-07-03 11:59:13,-0.03,0.57,0.00,25.35,29.18,31.84,13.71,41.57,1013.77,2024.14,3304.99,2908.90,3344.50,600.16,589.81,21.19,0000 0000 0000 0000 000000
2017-07-03 12:04:14,0.01,0.57,0.00,25.37,29.21,31.86,13.77,41.57,1013.70,2024.03,3304.90,2908.56,3344.05,600.41,590.01,21.24,0000 0000 0000 0000 000000
2017-07-03 12:09:15,0.02,0.58,0.00,25.37,29.23,31.89,13.66,41.57,1013.69,2024.00,3304.18,2908.04,3344.00,599.55,589.15,21.29,0000 0000 0000 0000 000000
2017-07-03 12:14:17,0.00,0.58,0.00,25.34,29.26,31.95,13.70,41.49,1013.69,2024.00,3304.01,2908.00,3343.97,600.13,589.85,21.34,0000 0000 0000 0000 000000
2017-07-03 12:19:18,0.01,0.58,0.00,25.30,29.27,32.01,13.72,41.58,1013.69,2024.00,3303.99,2908.00,3343.56,599.97,589.68,21.39,0000 0000 0000 0000 000000
2017-07-03 12:24:19,0.00,0.58,0.00,25.25,29.30,32.06,13.73,41.63,1013.69,2023.97,3303.93,2907.97,3343.10,600.22,589.91,21.44,0000 0000 0000 0000 000000
2017-07-03 12:29:21,0.01,0.58,0.00,25.21,29.31,32.07,13.77,41.68,1013.68,2023.96,3303.53,2907.90,3343.01,600.22,590.24,21.49,0000 0000 0000 0000 000000
2017-07-03 12:34:22,0.01,0.58,0.00,25.18,29.32,32.17,13.71,41.60,1013.64,2023.85,3303.11,2907.43,3343.00,600.21,590.26,21.54,0000 0000 0000 0000 000000
2017-07-03 12:39:24,-0.04,0.58,0.00,25.15,29.34,32.20,13.79,41.69,1013.51,2023.40,3303.00,2907.03,3342.96,600.17,590.10,21.59,0000 0000 0000 0000 000000
2017-07-03 12:44:25,-0.01,0.58,0.00,25.14,29.35,32.21,13.72,41.57,1013.46,2023.18,3302.99,2907.01,3342.79,600.09,590.05,21.64,0000 0000 0000 0000 000000
2017-07-03 12:49:26,-0.00,0.57,0.00,25.12,29.35,32.25,13.69,41.52,1013.30,2023.08,3302.97,2907.00,3342.46,599.76,589.60,21.69,0000 0000 0000 0000 000000
2017-07-03 12:54:27,0.01,0.58,0.00,25.09,29.37,32.27,13.73,41.69,1013.23,2023.03,3302.73,2907.00,3342.02,600.39,590.25,21.74,0000 0000 0000 0000 000000